Regional Weather Roundup
Issued by NWS

Home | Current Version | Previous Version | Graphics & Text | Print | Product List | Glossary On
Versions: 1 2 3 4 5 6 7 8 9 10 11 12 13 14 15 16 17 18 19 20 21 22 23 24 25 26 27 28 29 30 31 32 33 34 35 36 37 38 39 40 41 42 43 44 45 46 47 48 49 50
000
ASUS43 KLSX 221259
RWRMO

WEATHER SUMMARY FOR MISSOURI
NATIONAL WEATHER SERVICE SPRINGFIELD MO
800 AM CDT WED OCT 22 2014

NOTE: "FAIR" INDICATES FEW OR NO CLOUDS BELOW 12,000 FEET WITH NO
       SIGNIFICANT WEATHER AND/OR OBSTRUCTIONS TO VISIBILITY.
       CURRENT SKY AND/OR WEATHER CONDITIONS ARE NOT AVAILABLE FOR
       CHILLICOTHE AND FARMINGTON.

MOZ001>031-035>038-043-044-053-054-221400-
...NORTHERN AND WESTERN MISSOURI...

CITY           SKY/WX    TMP DP  RH WIND       PRES   REMARKS
KANSAS CTY INT CLOUDY    53  46  77 SE12      30.18R
KANSAS C DTWN  MOCLDY    56  45  66 E7        30.18S
LEE`S SUMMIT   MOCLDY    52  45  77 SE7       30.20S
ST JOSEPH      MOCLDY    54  45  71 SE10      30.18R
KIRKSVILLE     CLEAR     40  39  97 SE7       30.28R

$$
MOZ066>068-077>081-088>096-101>105-221400-
...SOUTHWEST MISSOURI...

CITY           SKY/WX    TMP DP  RH WIND       PRES   REMARKS
SPRINGFIELD    CLEAR     51  43  74 SE15      30.21R
JOPLIN         PTCLDY    53  48  83 E7        30.19R

$$
MOZ032>034-039>042-045>050-055>058-069>072-221400-
...CENTRAL MISSOURI...

CITY           SKY/WX    TMP DP  RH WIND       PRES   REMARKS
COLUMBIA       CLEAR     43  41  93 E8        30.26S
JEFFERSON CITY CLEAR     45  41  86 E7        30.27R
ROLLA          CLEAR     42  39  89 E7        30.25R
SEDALIA        CLEAR     47  42  83 SE8       30.25R
OSAGE BEACH    CLEAR     45  39  81 E3        30.25R

$$
MOZ051-052-059>065-221400-
...EAST CENTRAL MISSOURI...

CITY           SKY/WX    TMP DP  RH WIND       PRES   REMARKS
ST LOUIS INTL  CLEAR     45  39  79 E6        30.30S
SPIRIT OF STL  CLEAR     39  38  96 CALM      30.29S
ST CHARLES     CLEAR     40  39  97 NE3       30.30S

$$
MOZ072>076-082>087-097>100-106>115-221400-
...SOUTH CENTRAL AND SOUTHEAST MISSOURI...

CITY           SKY/WX    TMP DP  RH WIND       PRES   REMARKS
CAPE GIRARDEAU CLEAR     40  38  93 CALM      30.29R
FARMINGTON     CLEAR     37  37 100 CALM      30.29R
POPLAR BLUFF   CLEAR     45  40  82 N5        30.27R
WEST PLAINS    CLEAR     45  40  82 E6        30.26R

$$



USA.gov is the U.S. government's official web portal to all federal, state and local government web resources and services.